Weather History for Riverton, WY

Change the Weather History Date:

Friday, March 29, 2013

  Actual Average Record
Temperature  
Mean Temperature 50 °F 40 °F  
Max Temperature 62 °F 52 °F 63 °F (2010)
Min Temperature 38 °F 27 °F 14 °F (2003)
Degree Days  
Heating Degree Days 15 25  
Month to date heating degree days 835 867  
Since 1 July heating degree days 6401 6721  
Cooling Degree Days 0 0  
Month to date cooling degree days 0 0  
Year to date cooling degree days 0 0  
Moisture  
Dew Point 23 °F    
Average Humidity 42    
Maximum Humidity 62    
Minimum Humidity 22    
Precipitation  
Precipitation 0.00 in 0.03 in 0.14 in (2009)
Month to date precipitation 0.11 0.49  
Year to date precipitation 0.76 1.00  
Snow  
Snow 0.00 in - - ()
Month to date snowfall 1.1  
Since 1 July snowfall 19.9  
Snow Depth 0.00 in    
Sea Level Pressure  
Sea Level Pressure 30.02 in    
Wind  
Wind Speed 9 mph (NW)    
Max Wind Speed 28 mph    
Max Gust Speed 33 mph    
Visibility 10 miles    
Events      
T = Trace of Precipitation, MM = Missing Value Source: NWS Daily Summary

Daily Weather History Graph

Daily Weather History Graph

Search for Another Location

Airport:

Trip Planner

Search our weather history database for the weather conditions in past years. The results will help you decide how hot, cold, wet, or windy it might be!

Date:

Astronomy

Mar. 29, 2013 Rise Set
Actual Time 7:00 AM MDT 7:37 PM MDT
Civil Twilight 6:32 AM MDT 8:05 PM MDT
Nautical Twilight 5:58 AM MDT 8:39 PM MDT
Astronomical Twilight 5:23 AM MDT 9:14 PM MDT
Moon 10:46 PM MDT (3/29) 8:07 AM MDT (3/29)
Length of Visible Light 13h 33m
Length of Day
12h 36m
Waning Gibbous, 93% of the Moon is Illuminated
Mar 29
Waning Gibbous
Apr 2
Last Quarter
Apr 10
New
Apr 18
First Quarter
Apr 25
Full

Hourly Weather History & Observations

Time (MDT) Temp. Windchill Dew Point Humidity Pressure Visibility Wind Dir Wind Speed Gust Speed Precip Events Conditions
12:53 AM 39.0 °F 32.3 °F 19.0 °F 45% 30.00 in 10.0 mi NW 10.4 mph - N/A   Clear
1:53 AM 39.0 °F 31.4 °F 21.0 °F 49% 29.99 in 10.0 mi NW 12.7 mph - N/A   Clear
2:53 AM 39.9 °F 32.5 °F 21.9 °F 49% 29.98 in 10.0 mi NW 12.7 mph - N/A   Partly Cloudy
3:53 AM 42.1 °F - 21.9 °F 45% 29.98 in 10.0 mi Calm Calm - N/A   Clear
4:53 AM 39.9 °F 35.8 °F 19.9 °F 45% 29.99 in 10.0 mi West 5.8 mph - N/A   Clear
5:53 AM 41.0 °F - 19.9 °F 43% 30.00 in 10.0 mi Calm Calm - N/A   Clear
6:53 AM 39.0 °F 32.8 °F 19.9 °F 46% 30.03 in 10.0 mi WSW 9.2 mph - N/A   Clear
7:53 AM 42.1 °F 37.7 °F 21.0 °F 43% 30.04 in 10.0 mi SW 6.9 mph - N/A   Clear
8:53 AM 46.0 °F 44.8 °F 24.1 °F 42% 30.05 in 10.0 mi WSW 3.5 mph - N/A   Clear
9:53 AM 51.1 °F - 25.0 °F 36% 30.05 in 10.0 mi SW 4.6 mph - N/A   Mostly Cloudy
10:53 AM 57.9 °F - 25.0 °F 28% 30.04 in 10.0 mi NNW 6.9 mph - N/A   Clear
11:53 AM 59.0 °F - 23.0 °F 25% 30.03 in 10.0 mi NW 8.1 mph - N/A   Clear
12:53 PM 60.1 °F - 21.9 °F 23% 30.01 in 10.0 mi Variable 4.6 mph - N/A   Scattered Clouds
1:53 PM 59.0 °F - 21.0 °F 23% 30.00 in 10.0 mi Variable 3.5 mph - N/A   Overcast
2:53 PM 60.1 °F - 23.0 °F 24% 29.97 in 10.0 mi Variable 5.8 mph - 0.00 in   Overcast
3:53 PM 59.0 °F - 21.9 °F 24% 29.96 in 10.0 mi North 6.9 mph - N/A   Overcast
4:53 PM 57.0 °F - 24.1 °F 28% 29.99 in 10.0 mi NNW 12.7 mph - 0.00 in   Mostly Cloudy
5:53 PM 60.1 °F - 21.0 °F 22% 29.98 in 10.0 mi WNW 19.6 mph 28.8 mph N/A   Mostly Cloudy
6:53 PM 57.0 °F - 21.0 °F 25% 30.02 in 10.0 mi NNW 18.4 mph 24.2 mph N/A   Clear
7:53 PM 51.1 °F - 21.9 °F 32% 30.04 in 10.0 mi NNW 8.1 mph - N/A   Clear
8:53 PM 51.1 °F - 23.0 °F 33% 30.05 in 10.0 mi NNW 13.8 mph 20.7 mph N/A   Scattered Clouds
9:53 PM 48.9 °F - 21.9 °F 35% 30.04 in 10.0 mi West 18.4 mph - N/A   Clear
10:53 PM 48.0 °F - 24.1 °F 39% 30.03 in 10.0 mi WNW 17.3 mph - N/A   Clear
11:24 PM 44.6 °F 38.1 °F 26.6 °F 49% 30.13 in 10.0 mi North 13.8 mph - N/A   Scattered Clouds
11:53 PM 43.0 °F 37.2 °F 30.0 °F 60% 30.05 in 10.0 mi North 10.4 mph - N/A   Partly Cloudy